Time,TemperatureF,DewpointF,PressureIn,WindDirection,WindDirectionDegrees,WindSpeedMPH,WindSpeedGustMPH,Humidity,HourlyPrecipIn,Conditions,Clouds,dailyrainin,SoftwareType,DateUTC
2013-01-14 00:14:00,51.8,50.0,29.98,West,261,3.0,9.0,92,0.00,,,0.00,weatherlink.com 1.10,2013-01-14 05:14:00,
2013-01-14 00:29:00,52.0,50.0,29.98,WNW,290,4.0,10.0,92,0.00,,,0.00,weatherlink.com 1.10,2013-01-14 05:29:00,
2013-01-14 00:44:00,51.9,50.0,29.98,WNW,286,7.0,12.0,92,0.00,,,0.00,weatherlink.com 1.10,2013-01-14 05:44:00,
2013-01-14 00:59:00,51.8,50.0,29.97,SSW,208,7.0,13.0,92,0.00,,,0.00,weatherlink.com 1.10,2013-01-14 05:59:00,
2013-01-14 01:14:00,51.6,50.0,29.98,WSW,258,8.0,13.0,93,0.00,,,0.00,weatherlink.com 1.10,2013-01-14 06:14:00,
2013-01-14 01:29:00,51.4,50.0,29.97,SW,225,7.0,13.0,93,0.00,,,0.00,weatherlink.com 1.10,2013-01-14 06:29:00,
2013-01-14 01:44:00,51.3,50.0,29.97,West,263,4.0,10.0,94,0.00,,,0.00,weatherlink.com 1.10,2013-01-14 06:44:00,
2013-01-14 01:59:00,51.1,50.0,29.98,West,260,7.0,13.0,94,0.00,,,0.00,weatherlink.com 1.10,2013-01-14 06:59:00,
2013-01-14 02:14:00,51.0,50.0,29.98,WSW,245,3.0,11.0,95,0.00,,,0.00,weatherlink.com 1.10,2013-01-14 07:14:00,
2013-01-14 02:29:00,50.8,50.0,29.97,West,268,6.0,9.0,95,0.00,,,0.00,weatherlink.com 1.10,2013-01-14 07:29:00,
2013-01-14 02:44:00,50.8,50.0,29.98,West,281,4.0,8.0,96,0.00,,,0.00,weatherlink.com 1.10,2013-01-14 07:44:00,
2013-01-14 02:59:00,50.7,50.0,29.97,West,261,5.0,9.0,96,0.00,,,0.00,weatherlink.com 1.10,2013-01-14 07:59:00,
2013-01-14 03:14:00,50.7,50.0,29.96,WSW,249,4.0,8.0,96,0.00,,,0.00,weatherlink.com 1.10,2013-01-14 08:14:00,
2013-01-14 03:29:00,50.9,50.0,29.96,WSW,243,3.0,8.0,96,0.00,,,0.00,weatherlink.com 1.10,2013-01-14 08:29:00,
2013-01-14 03:45:00,51.2,50.0,29.94,SW,234,8.0,9.0,96,0.00,,,0.00,weatherlink.com 1.10,2013-01-14 08:45:00,
2013-01-14 04:00:00,51.5,50.0,29.93,SW,221,2.0,10.0,96,0.00,,,0.00,weatherlink.com 1.10,2013-01-14 09:00:00,
2013-01-14 04:15:00,51.6,51.0,29.92,SSW,202,3.0,10.0,96,0.00,,,0.00,weatherlink.com 1.10,2013-01-14 09:15:00,
2013-01-14 04:30:00,51.8,51.0,29.92,WSW,246,6.0,12.0,96,0.00,,,0.00,weatherlink.com 1.10,2013-01-14 09:30:00,
2013-01-14 04:45:00,51.9,51.0,29.92,WSW,252,4.0,12.0,96,0.00,,,0.00,weatherlink.com 1.10,2013-01-14 09:45:00,
2013-01-14 05:00:00,51.9,51.0,29.91,West,267,4.0,13.0,95,0.00,,,0.00,weatherlink.com 1.10,2013-01-14 10:00:00,
2013-01-14 05:15:00,51.8,51.0,29.92,SW,236,7.0,12.0,95,0.00,,,0.00,weatherlink.com 1.10,2013-01-14 10:15:00,
2013-01-14 05:30:00,51.8,50.0,29.93,West,275,4.0,15.0,94,0.00,,,0.00,weatherlink.com 1.10,2013-01-14 10:30:00,
2013-01-14 05:45:00,51.6,50.0,29.91,SSW,202,3.0,16.0,94,0.00,,,0.00,weatherlink.com 1.10,2013-01-14 10:45:00,
2013-01-14 06:00:00,51.5,50.0,29.91,SSW,194,5.0,13.0,93,0.00,,,0.00,weatherlink.com 1.10,2013-01-14 11:00:00,
2013-01-14 06:15:00,51.5,50.0,29.91,West,266,8.0,12.0,93,0.00,,,0.00,weatherlink.com 1.10,2013-01-14 11:15:00,
2013-01-14 06:30:00,51.8,50.0,29.90,SW,224,6.0,16.0,93,0.00,,,0.00,weatherlink.com 1.10,2013-01-14 11:30:00,
2013-01-14 06:45:00,52.2,50.0,29.84,SW,223,8.0,18.0,92,0.00,,,0.00,weatherlink.com 1.10,2013-01-14 11:45:00,
2013-01-14 07:00:00,52.5,51.0,29.87,SW,231,3.0,14.0,93,0.00,,,0.00,weatherlink.com 1.10,2013-01-14 12:00:00,
2013-01-14 07:15:00,52.8,51.0,29.88,WSW,239,9.0,15.0,92,0.00,,,0.00,weatherlink.com 1.10,2013-01-14 12:15:00,
2013-01-14 07:30:00,52.7,51.0,29.90,NNW,340,3.0,12.0,92,0.00,,,0.00,weatherlink.com 1.10,2013-01-14 12:30:00,
2013-01-14 07:45:00,52.8,51.0,29.92,West,267,6.0,11.0,92,0.00,,,0.00,weatherlink.com 1.10,2013-01-14 12:45:00,
2013-01-14 08:00:00,52.8,51.0,29.93,WNW,293,2.0,8.0,92,0.00,,,0.00,weatherlink.com 1.10,2013-01-14 13:00:00,
2013-01-14 08:15:00,52.9,51.0,29.93,WNW,294,2.0,11.0,92,0.00,,,0.00,weatherlink.com 1.10,2013-01-14 13:15:00,
2013-01-14 08:30:00,52.9,51.0,29.94,West,268,4.0,13.0,92,0.00,,,0.00,weatherlink.com 1.10,2013-01-14 13:30:00,
2013-01-14 08:45:00,52.9,51.0,29.95,WNW,284,7.0,14.0,92,0.00,,,0.00,weatherlink.com 1.10,2013-01-14 13:45:00,
2013-01-14 09:00:00,53.0,51.0,29.95,West,264,9.0,15.0,92,0.00,,,0.00,weatherlink.com 1.10,2013-01-14 14:00:00,
2013-01-14 09:15:00,53.2,51.0,29.95,West,263,6.0,14.0,91,0.00,,,0.00,weatherlink.com 1.10,2013-01-14 14:15:00,
2013-01-14 09:30:00,53.6,51.0,29.94,WNW,287,6.0,13.0,91,0.00,,,0.00,weatherlink.com 1.10,2013-01-14 14:30:00,
2013-01-14 09:45:00,54.1,51.0,29.96,West,279,7.0,11.0,90,0.00,,,0.00,weatherlink.com 1.10,2013-01-14 14:45:00,
2013-01-14 10:00:00,54.5,51.0,29.98,West,277,7.0,12.0,89,0.00,,,0.00,weatherlink.com 1.10,2013-01-14 15:00:00,
2013-01-14 10:15:00,55.0,52.0,29.97,West,271,14.0,16.0,88,0.00,,,0.00,weatherlink.com 1.10,2013-01-14 15:15:00,
2013-01-14 10:30:00,55.7,52.0,29.97,WNW,286,2.0,18.0,86,0.00,,,0.00,weatherlink.com 1.10,2013-01-14 15:30:00,
2013-01-14 10:45:00,56.1,52.0,29.96,WNW,286,8.0,14.0,85,0.00,,,0.00,weatherlink.com 1.10,2013-01-14 15:45:00,
2013-01-14 11:00:00,56.3,52.0,29.95,SW,217,4.0,14.0,85,0.00,,,0.00,weatherlink.com 1.10,2013-01-14 16:00:00,
2013-01-14 11:16:00,56.7,52.0,29.95,West,267,7.0,12.0,84,0.00,,,0.00,weatherlink.com 1.10,2013-01-14 16:16:00,
2013-01-14 11:31:00,57.2,52.0,29.95,WSW,246,7.0,14.0,82,0.00,,,0.00,weatherlink.com 1.10,2013-01-14 16:31:00,
2013-01-14 11:46:00,57.1,52.0,29.94,West,277,5.0,14.0,82,0.00,,,0.00,weatherlink.com 1.10,2013-01-14 16:46:00,
2013-01-14 12:01:00,57.5,52.0,29.95,West,275,5.0,11.0,81,0.00,,,0.00,weatherlink.com 1.10,2013-01-14 17:01:00,
2013-01-14 12:16:00,58.9,52.0,29.95,SW,220,4.0,11.0,78,0.00,,,0.00,weatherlink.com 1.10,2013-01-14 17:16:00,
2013-01-14 12:31:00,59.8,51.0,29.94,WNW,302,7.0,17.0,73,0.00,,,0.00,weatherlink.com 1.10,2013-01-14 17:31:00,
2013-01-14 12:46:00,60.5,49.0,29.94,WNW,290,11.0,15.0,67,0.00,,,0.00,weatherlink.com 1.10,2013-01-14 17:46:00,
2013-01-14 13:01:00,60.9,49.0,29.94,WSW,254,5.0,13.0,66,0.00,,,0.00,weatherlink.com 1.10,2013-01-14 18:01:00,
2013-01-14 13:16:00,61.3,49.0,29.95,NNW,327,5.0,13.0,65,0.00,,,0.00,weatherlink.com 1.10,2013-01-14 18:16:00,
2013-01-14 13:31:00,61.5,49.0,29.96,NNW,333,8.0,13.0,63,0.00,,,0.00,weatherlink.com 1.10,2013-01-14 18:31:00,
2013-01-14 13:46:00,60.7,48.0,29.96,NW,313,12.0,19.0,63,0.00,,,0.00,weatherlink.com 1.10,2013-01-14 18:46:00,
2013-01-14 14:01:00,61.2,48.0,29.97,WNW,299,10.0,17.0,63,0.00,,,0.00,weatherlink.com 1.10,2013-01-14 19:01:00,
2013-01-14 14:16:00,61.4,46.0,29.99,NW,326,14.0,20.0,58,0.00,,,0.00,weatherlink.com 1.10,2013-01-14 19:16:00,
2013-01-14 14:31:00,61.1,46.0,29.99,NNW,343,12.0,17.0,57,0.00,,,0.00,weatherlink.com 1.10,2013-01-14 19:31:00,
2013-01-14 14:46:00,60.5,45.0,30.00,NW,311,8.0,13.0,58,0.00,,,0.00,weatherlink.com 1.10,2013-01-14 19:46:00,
2013-01-14 15:18:00,58.9,42.0,30.03,NW,314,5.0,15.0,53,0.00,,,0.00,weatherlink.com 1.10,2013-01-14 20:18:00,
2013-01-14 15:31:00,57.8,39.0,30.04,WNW,299,13.0,16.0,50,0.00,,,0.00,weatherlink.com 1.10,2013-01-14 20:31:00,
2013-01-14 16:01:00,56.1,36.0,30.07,NW,318,4.0,14.0,48,0.00,,,0.00,weatherlink.com 1.10,2013-01-14 21:01:00,
2013-01-14 16:16:00,55.4,36.0,30.07,NW,326,7.0,11.0,48,0.00,,,0.00,weatherlink.com 1.10,2013-01-14 21:16:00,
2013-01-14 16:31:00,54.5,34.0,30.07,NW,317,6.0,13.0,46,0.00,,,0.00,weatherlink.com 1.10,2013-01-14 21:31:00,
2013-01-14 16:46:00,53.7,33.0,30.09,NNW,345,5.0,10.0,46,0.00,,,0.00,weatherlink.com 1.10,2013-01-14 21:46:00,
2013-01-14 17:01:00,53.1,33.0,30.09,WNW,300,2.0,5.0,47,0.00,,,0.00,weatherlink.com 1.10,2013-01-14 22:01:00,
2013-01-14 17:16:00,52.4,32.0,30.10,NW,323,2.0,5.0,47,0.00,,,0.00,weatherlink.com 1.10,2013-01-14 22:16:00,
2013-01-14 17:31:00,51.7,32.0,30.10,NW,306,2.0,5.0,48,0.00,,,0.00,weatherlink.com 1.10,2013-01-14 22:31:00,
2013-01-14 17:46:00,50.8,32.0,30.11,NW,306,6.0,7.0,49,0.00,,,0.00,weatherlink.com 1.10,2013-01-14 22:46:00,
2013-01-14 18:01:00,49.5,32.0,30.11,NNW,342,4.0,6.0,52,0.00,,,0.00,weatherlink.com 1.10,2013-01-14 23:01:00,
2013-01-14 18:17:00,49.7,32.0,30.10,NW,308,3.0,10.0,51,0.00,,,0.00,weatherlink.com 1.10,2013-01-14 23:17:00,
2013-01-14 18:32:00,48.7,33.0,30.12,North,355,4.0,5.0,54,0.00,,,0.00,weatherlink.com 1.10,2013-01-14 23:32:00,
2013-01-14 18:47:00,48.5,31.0,30.12,North,351,5.0,9.0,52,0.00,,,0.00,weatherlink.com 1.10,2013-01-14 23:47:00,
2013-01-14 19:02:00,47.3,31.0,30.13,NNW,331,5.0,7.0,54,0.00,,,0.00,weatherlink.com 1.10,2013-01-15 00:02:00,
2013-01-14 19:17:00,47.6,30.0,30.15,North,5,7.0,10.0,51,0.00,,,0.00,weatherlink.com 1.10,2013-01-15 00:17:00,
2013-01-14 19:32:00,47.3,29.0,30.16,NNW,336,7.0,12.0,50,0.00,,,0.00,weatherlink.com 1.10,2013-01-15 00:32:00,
2013-01-14 19:47:00,46.8,30.0,30.16,NNW,347,12.0,15.0,53,0.00,,,0.00,weatherlink.com 1.10,2013-01-15 00:47:00,
2013-01-14 20:02:00,46.4,30.0,30.18,NNW,340,8.0,15.0,54,0.00,,,0.00,weatherlink.com 1.10,2013-01-15 01:02:00,
2013-01-14 20:17:00,45.7,31.0,30.18,NW,325,6.0,11.0,56,0.00,,,0.00,weatherlink.com 1.10,2013-01-15 01:17:00,
2013-01-14 20:32:00,45.2,31.0,30.18,NNW,333,8.0,15.0,57,0.00,,,0.00,weatherlink.com 1.10,2013-01-15 01:32:00,
2013-01-14 20:48:00,44.9,31.0,30.18,North,360,9.0,15.0,58,0.00,,,0.00,weatherlink.com 1.10,2013-01-15 01:48:00,
2013-01-14 21:02:00,44.5,30.0,30.18,NNW,335,11.0,14.0,57,0.00,,,0.00,weatherlink.com 1.10,2013-01-15 02:02:00,
2013-01-14 21:17:00,44.0,30.0,30.19,NNW,346,6.0,11.0,59,0.00,,,0.00,weatherlink.com 1.10,2013-01-15 02:17:00,
2013-01-14 21:32:00,43.9,30.0,30.18,NNW,344,11.0,14.0,58,0.00,,,0.00,weatherlink.com 1.10,2013-01-15 02:32:00,
2013-01-14 21:47:00,43.6,30.0,30.19,NNW,332,6.0,14.0,58,0.00,,,0.00,weatherlink.com 1.10,2013-01-15 02:47:00,
2013-01-14 22:02:00,43.2,29.0,30.18,NNW,328,9.0,14.0,58,0.00,,,0.00,weatherlink.com 1.10,2013-01-15 03:02:00,
2013-01-14 22:17:00,42.8,29.0,30.19,NNW,335,6.0,13.0,59,0.00,,,0.00,weatherlink.com 1.10,2013-01-15 03:17:00,
2013-01-14 22:32:00,42.3,29.0,30.20,North,355,12.0,17.0,59,0.00,,,0.00,weatherlink.com 1.10,2013-01-15 03:32:00,
2013-01-14 22:47:00,42.1,29.0,30.22,NW,318,5.0,8.0,59,0.00,,,0.00,weatherlink.com 1.10,2013-01-15 03:47:00,
2013-01-14 23:02:00,41.8,29.0,30.22,NNW,348,5.0,9.0,60,0.00,,,0.00,weatherlink.com 1.10,2013-01-15 04:02:00,
2013-01-14 23:17:00,41.7,29.0,30.22,NNW,331,4.0,8.0,60,0.00,,,0.00,weatherlink.com 1.10,2013-01-15 04:17:00,
2013-01-14 23:32:00,41.4,28.0,30.23,NW,309,4.0,12.0,60,0.00,,,0.00,weatherlink.com 1.10,2013-01-15 04:32:00,
2013-01-14 23:47:00,41.2,28.0,30.23,NW,325,5.0,7.0,60,0.00,,,0.00,weatherlink.com 1.10,2013-01-15 04:47:00,